Flag for Ireland Weather past 2 weeks in Waterford, Ireland

55 °F

More clouds than sun.

Feels Like: 52 °F
Forecast: 53 / 57 °F
Wind: 15 mph from South

Location: Cork Airport

Current Time: Oct 9, 2015 at 3:19:12 PM

Latest Report: Oct 9, 2015 at 3:00 PM

Visibility: N/A

Pressure: 30.09 "Hg

Humidity: 94%

Dew point: 54 °F

Location of WaterfordLocation

Historic Weather in Waterford — Graph


Waterford temperature yesterday

Maximum temperature yesterday: 57 °F (at 1:30 PM)
Minimum temperature yesterday: 46 °F (at 12:00 AM)
Average temperature yesterday: 52 °F

Past Weeks' High & Low Weather Summary

High61 °F (Sep 25, 2:00 PM)100% (Sep 25, 9:00 PM)30.54 "Hg (Sep 25, 9:00 PM)
Low45 °F (Oct 2, 7:00 AM)59% (Sep 25, 2:30 PM)29.24 "Hg (Oct 5, 10:00 PM)
Average53 °F91%30.11 "Hg
* Reported Sep 24 2:00 PM — Oct 9 2:00 PM, Waterford, Weather by CustomWeather, © 2015

Note: Actual official high and low records may vary slightly from our data, if they occured in-between our weather recording intervals... More about our weather records


Waterford weather history for previous 24 hours

Time TempWeatherWind HumidityBarometerVisibility
2:00 PM
Fri, Oct 9
55 °FBroken clouds.15 mph94%30.09 "HgN/A
1:30 PM55 °FPartly sunny.15 mph94%30.09 "HgN/A
1:00 PM55 °FBroken clouds.12 mph94%30.09 "HgN/A
12:30 PM57 °FBroken clouds.14 mph88%30.09 "HgN/A
12:00 PM57 °FBroken clouds.15 mph94%30.09 "HgN/A
11:30 AM55 °FBroken clouds.12 mph100%30.09 "HgN/A
11:00 AM57 °FBroken clouds.10 mph94%30.09 "HgN/A
10:30 AM55 °FPartly sunny.9 mph100%30.09 "HgN/A
10:00 AM55 °FBroken clouds.9 mph100%30.09 "HgN/A
9:30 AM54 °FBroken clouds.8 mph100%30.09 "HgN/A
9:00 AM54 °FBroken clouds.8 mph100%30.09 "HgN/A
8:30 AM55 °FPassing clouds.8 mph100%30.09 "HgN/A
8:00 AM54 °FPassing clouds.9 mph100%30.09 "HgN/A
7:30 AM54 °FPassing clouds.9 mph100%30.09 "HgN/A
7:00 AM54 °FPassing clouds.8 mph100%30.09 "HgN/A
6:30 AM54 °FPassing clouds.7 mph100%30.09 "HgN/A
6:00 AM54 °FPassing clouds.7 mph100%30.09 "HgN/A
5:30 AM54 °FPassing clouds.5 mph100%30.07 "HgN/A
5:00 AM54 °FPassing clouds.5 mph100%30.09 "HgN/A
4:30 AM54 °FPassing clouds.6 mph100%30.09 "HgN/A
4:00 AM54 °FPassing clouds.7 mph100%30.09 "HgN/A
3:30 AM54 °FPassing clouds.7 mph100%30.09 "HgN/A
3:00 AM54 °FPassing clouds.6 mph100%30.09 "HgN/A
2:30 AM54 °FPassing clouds.7 mph100%30.09 "HgN/A
2:00 AM54 °FPassing clouds.6 mph100%30.09 "HgN/A
1:30 AM54 °FPassing clouds.6 mph100%30.09 "HgN/A
1:00 AM54 °FLight rain. Passing clouds.6 mph100%30.09 "Hg3 mi
12:30 AM54 °FPassing clouds.6 mph100%30.09 "HgN/A
12:00 AM54 °FPassing clouds.6 mph100%30.12 "Hg3 mi
11:30 PM
Thu, Oct 8
54 °FLight rain. Passing clouds.7 mph100%30.12 "HgN/A
11:00 PM54 °FPassing clouds.6 mph100%30.12 "HgN/A
10:30 PM54 °FPartly cloudy.6 mph100%30.12 "HgN/A
10:00 PM54 °FPassing clouds.5 mph100%30.12 "HgN/A
9:30 PM54 °FPartly cloudy.5 mph100%30.12 "HgN/A
9:00 PM54 °FPassing clouds.5 mph100%30.12 "HgN/A
8:30 PM54 °FPassing clouds.6 mph100%30.12 "HgN/A
8:00 PM55 °FPassing clouds.6 mph100%30.09 "HgN/A
7:30 PM55 °FPartly sunny.7 mph100%30.09 "HgN/A
7:00 PM55 °FBroken clouds.5 mph100%30.09 "HgN/A
6:30 PM55 °FPartly sunny.6 mph94%30.09 "HgN/A
6:00 PM55 °FScattered clouds.8 mph94%30.09 "HgN/A
5:30 PM55 °FScattered clouds.8 mph94%30.09 "HgN/A
5:00 PM55 °FPartly sunny.7 mph100%30.09 "HgN/A
4:30 PM57 °FBroken clouds.10 mph88%30.09 "HgN/A
4:00 PM57 °FScattered clouds.9 mph94%30.09 "HgN/A
3:30 PM57 °FScattered clouds.9 mph88%30.09 "HgN/A
3:00 PM57 °FScattered clouds.9 mph88%30.09 "HgN/A
Weather by CustomWeather, © 2015

See weather overviewHow to use our weather pages